User: anonymous   Login
Location: Arrakis Observatory
(44.1122°N, 95.7153°W)
Time: 11:47:17
(UTC-05:00)
Language:

Coronas F rocket - Orbit

View from above orbital plane
View from above orbital plane
View from above satellite
View from above satellite

Ground track
Ground track

The orbit data is extracted from the following two-line orbital elements,

1 26874U 01032B   15180.86910292  .00009834  00000-0  96492-4 0  9993
2 26874 082.4667 303.9469 0012239 098.0600 262.2048 15.65759444780117
Epoch (UTC): 29 June 2015 20:51:30
Eccentricity: 0.0012239
inclination: 82.4667°
perigee height: 363 km
apogee height: 379 km
right ascension of ascending node: 303.9469°
argument of perigee: 98.0600°
revolutions per day: 15.65759444
mean anomaly at epoch: 262.2048°
orbit number at epoch: 78011

The dashed part of the orbit path shows where the satellite is in the earth's shadow,  

DLR